Hourly Data Report for October 01, 2017

All times are specified in Local Standard Time (LST). Add 1 hour to adjust for Daylight Saving Time where and when it is observed.

VICTORIA UNIVERSITY CS
BRITISH COLUMBIA

48°27'25.200" N
123°18'16.600" W
60.10 m
1018598
71783
WYJ

Download Data

Hourly Data (October 2017)
Hourly Data Report for October 1, 2017
Temp Definition
°C
Dew Point Temp Definition
°C
Rel Hum Definition
%
Wind Dir Definition
10's deg

Wind Spd Definition
km/h
Visibility Definition
km
Stn Press Definition
kPa
Hmdx Definition


Wind Chill Definition


Weather Definition


TIME
00:00 8.9 8.2 95 22 1   101.17     LegendNANA
01:00 8.4 8.1 98 23 3   101.18     LegendNANA
02:00 8.2 7.8 98 25 2   101.17     LegendNANA
03:00 8.0 7.7 98 26 2   101.19     LegendNANA
04:00 8.4 8.1 98 31 2   101.20     LegendNANA
05:00 9.0 8.7 98 9 4   101.21     LegendNANA
06:00 9.6 8.4 92 30 5   101.23     LegendNANA
07:00 10.0 8.1 88 27 3   101.27     LegendNANA
08:00 10.9 8.7 87 8 2   101.31     LegendNANA
09:00 12.2 8.9 80 9 3   101.33     LegendNANA
10:00 14.7 7.3 61 2 7   101.32     LegendNANA
11:00 14.6 7.7 63 10 4   101.33     LegendNANA
12:00 14.6 8.2 65 13 5   101.34     LegendNANA
13:00 13.2 7.4 68 1 7   101.35     LegendNANA
14:00 15.4 7.0 57 32 6   101.31     LegendNANA
15:00 15.8 8.1 60 8 3   101.29     LegendNANA
16:00 14.7 7.9 64 20 4   101.29     LegendNANA
17:00 13.6 7.4 66 23 3   101.32     LegendNANA
18:00 11.1 6.7 74 24 4   101.34     LegendNANA
19:00 9.1 7.2 88 25 2   101.35     LegendNANA
20:00 9.4 7.6 88 25 3   101.35     LegendNANA
21:00 9.2 7.4 89 24 4   101.33     LegendNANA
22:00 8.9 7.2 89 26 5   101.31     LegendNANA
23:00 8.5 6.3 86 26 4   101.31     LegendNANA

Notes on Data Quality.

Legend

  • E = Estimated
  • M = Missing
  • NA = Not Available
  • ‡ = Partner data that is not subject to review by the National Climate Archives
Date modified: